Year,Month,Day,Hour,Minute,Value (Times are PST for windspeed in km/hr)
2021,11,09,00,00,17.60
2021,11,09,00,01,15.60
2021,11,09,00,02,15.60
2021,11,09,00,03,15.60
2021,11,09,00,04,18.60
2021,11,09,00,05,19.10
2021,11,09,00,06,18.40
2021,11,09,00,07,19.10
2021,11,09,00,08,18.40
2021,11,09,00,09,16.00
2021,11,09,00,10,19.30
2021,11,09,00,11,18.80
2021,11,09,00,12,19.90
2021,11,09,00,13,16.90
2021,11,09,00,14,17.20
2021,11,09,00,15,16.70
2021,11,09,00,16,16.50
2021,11,09,00,17,18.70
2021,11,09,00,18,18.40
2021,11,09,00,19,14.70
2021,11,09,00,20,13.90
2021,11,09,00,21,17.60
2021,11,09,00,22,14.00
2021,11,09,00,23,12.60
2021,11,09,00,24,14.80
2021,11,09,00,25,13.50
2021,11,09,00,26,11.90
2021,11,09,00,27,11.20
2021,11,09,00,28,16.30
2021,11,09,00,29,21.10
2021,11,09,00,30,18.50
2021,11,09,00,31,14.40
2021,11,09,00,32,14.70
2021,11,09,00,33,15.30
2021,11,09,00,34,12.00
2021,11,09,00,35,17.20
2021,11,09,00,36,18.10
2021,11,09,00,37,15.70
2021,11,09,00,38,16.20
2021,11,09,00,39,15.30
2021,11,09,00,40,17.50
2021,11,09,00,41,15.80
2021,11,09,00,42,14.80
2021,11,09,00,43,16.60
2021,11,09,00,44,15.80
2021,11,09,00,45,11.80
2021,11,09,00,46,7.50
2021,11,09,00,47,7.20
2021,11,09,00,48,10.90
2021,11,09,00,49,9.10
2021,11,09,00,50,13.70
2021,11,09,00,51,15.10
2021,11,09,00,52,11.40
2021,11,09,00,53,9.30
2021,11,09,00,54,5.80
2021,11,09,00,55,10.40
2021,11,09,00,56,11.00
2021,11,09,00,57,12.50
2021,11,09,00,58,6.90
2021,11,09,00,59,7.50
2021,11,09,01,00,6.60
2021,11,09,01,01,1.60
2021,11,09,01,02,6.40
2021,11,09,01,03,8.90
2021,11,09,01,04,10.40
2021,11,09,01,05,14.60
2021,11,09,01,06,14.20
2021,11,09,01,07,12.90
2021,11,09,01,08,13.20
2021,11,09,01,09,9.50
2021,11,09,01,10,8.00
2021,11,09,01,11,9.80
2021,11,09,01,12,7.40
2021,11,09,01,13,5.60
2021,11,09,01,14,5.00
2021,11,09,01,15,4.50
2021,11,09,01,16,1.10
2021,11,09,01,17,1.70
2021,11,09,01,18,5.20
2021,11,09,01,19,5.40
2021,11,09,01,20,3.90
2021,11,09,01,21,2.80
2021,11,09,01,22,4.70
2021,11,09,01,23,3.10
2021,11,09,01,24,2.30
2021,11,09,01,25,2.40
2021,11,09,01,26,4.60
2021,11,09,01,27,6.00
2021,11,09,01,28,10.70
2021,11,09,01,29,8.20
2021,11,09,01,30,6.60
2021,11,09,01,31,7.20
2021,11,09,01,32,3.40
2021,11,09,01,33,4.60
2021,11,09,01,34,7.40
2021,11,09,01,35,3.50
2021,11,09,01,36,0.60
2021,11,09,01,37,4.00
2021,11,09,01,38,1.00
2021,11,09,01,39,2.40
2021,11,09,01,40,3.10
2021,11,09,01,41,2.40
2021,11,09,01,42,4.20
2021,11,09,01,43,3.40
2021,11,09,01,44,2.30
2021,11,09,01,45,0.00
2021,11,09,01,46,2.20
2021,11,09,01,47,3.70
2021,11,09,01,48,2.80
2021,11,09,01,49,2.00
2021,11,09,01,50,3.00
2021,11,09,01,51,1.80
2021,11,09,01,52,2.30
2021,11,09,01,53,1.60
2021,11,09,01,54,0.10
2021,11,09,01,55,0.00
2021,11,09,01,56,0.80
2021,11,09,01,57,0.00
2021,11,09,01,58,2.00
2021,11,09,01,59,1.20
2021,11,09,02,00,0.00
2021,11,09,02,01,0.00
2021,11,09,02,02,0.00
2021,11,09,02,03,0.80
2021,11,09,02,04,1.80
2021,11,09,02,05,7.00
2021,11,09,02,06,5.70
2021,11,09,02,07,3.20
2021,11,09,02,08,2.90
2021,11,09,02,09,7.30
2021,11,09,02,10,7.80
2021,11,09,02,11,6.90
2021,11,09,02,12,5.20
2021,11,09,02,13,3.60
2021,11,09,02,14,5.80
2021,11,09,02,15,5.90
2021,11,09,02,16,10.90
2021,11,09,02,17,8.60
2021,11,09,02,18,10.20
2021,11,09,02,19,8.40
2021,11,09,02,20,8.70
2021,11,09,02,21,6.40
2021,11,09,02,22,6.20
2021,11,09,02,23,5.50
2021,11,09,02,24,6.70
2021,11,09,02,25,4.30
2021,11,09,02,26,6.20
2021,11,09,02,27,6.10
2021,11,09,02,28,6.60
2021,11,09,02,29,6.90
2021,11,09,02,30,6.60
2021,11,09,02,31,6.80
2021,11,09,02,32,4.30
2021,11,09,02,33,10.40
2021,11,09,02,34,9.50
2021,11,09,02,35,7.80
2021,11,09,02,36,7.20
2021,11,09,02,37,8.60
2021,11,09,02,38,6.00
2021,11,09,02,39,7.80
2021,11,09,02,40,8.20
2021,11,09,02,41,8.70
2021,11,09,02,42,9.80
2021,11,09,02,43,7.20
2021,11,09,02,44,9.60
2021,11,09,02,45,11.60
2021,11,09,02,46,11.30
2021,11,09,02,47,10.50
2021,11,09,02,48,10.40
2021,11,09,02,49,8.30
2021,11,09,02,50,6.90
2021,11,09,02,51,9.40
2021,11,09,02,52,7.70
2021,11,09,02,53,11.00
2021,11,09,02,54,8.50
2021,11,09,02,55,7.30
2021,11,09,02,56,9.20
2021,11,09,02,57,12.90
2021,11,09,02,58,13.50
2021,11,09,02,59,9.30
2021,11,09,03,00,15.60
2021,11,09,03,01,16.20
2021,11,09,03,02,11.10
2021,11,09,03,03,12.00
2021,11,09,03,04,12.40
2021,11,09,03,05,11.10
2021,11,09,03,06,10.50
2021,11,09,03,07,16.20
2021,11,09,03,08,13.20
2021,11,09,03,09,15.30
2021,11,09,03,10,9.90
2021,11,09,03,11,14.70
2021,11,09,03,12,13.50
2021,11,09,03,13,11.20
2021,11,09,03,14,12.60
2021,11,09,03,15,13.20
2021,11,09,03,16,11.20
2021,11,09,03,17,9.10
2021,11,09,03,18,8.70
2021,11,09,03,19,12.90
2021,11,09,03,20,12.50
2021,11,09,03,21,13.40
2021,11,09,03,22,11.40
2021,11,09,03,23,8.20
2021,11,09,03,24,7.50
2021,11,09,03,25,15.70
2021,11,09,03,26,14.70
2021,11,09,03,27,16.30
2021,11,09,03,28,13.50
2021,11,09,03,29,14.50
2021,11,09,03,30,12.10
2021,11,09,03,31,14.80
2021,11,09,03,32,13.80
2021,11,09,03,33,14.10
2021,11,09,03,34,13.40
2021,11,09,03,35,12.10
2021,11,09,03,36,14.70
2021,11,09,03,37,14.20
2021,11,09,03,38,11.20
2021,11,09,03,39,12.50
2021,11,09,03,40,12.10
2021,11,09,03,41,11.30
2021,11,09,03,42,10.30
2021,11,09,03,43,16.80
2021,11,09,03,44,17.10
2021,11,09,03,45,13.50
2021,11,09,03,46,15.00
2021,11,09,03,47,16.00
2021,11,09,03,48,15.10
2021,11,09,03,49,11.90
2021,11,09,03,50,13.50
2021,11,09,03,51,12.20
2021,11,09,03,52,14.10
2021,11,09,03,53,16.00
2021,11,09,03,54,16.60
2021,11,09,03,55,14.10
2021,11,09,03,56,12.70
2021,11,09,03,57,14.70
2021,11,09,03,58,15.20
2021,11,09,03,59,11.80
2021,11,09,04,00,16.80
2021,11,09,04,01,18.30
2021,11,09,04,02,16.60
2021,11,09,04,03,15.60
2021,11,09,04,04,18.30
2021,11,09,04,05,18.00
2021,11,09,04,06,18.20
2021,11,09,04,07,16.20
2021,11,09,04,08,17.60
2021,11,09,04,09,16.80
2021,11,09,04,10,19.10
2021,11,09,04,11,20.20
2021,11,09,04,12,16.70
2021,11,09,04,13,17.00
2021,11,09,04,14,17.60
2021,11,09,04,15,15.30
2021,11,09,04,16,15.40
2021,11,09,04,17,14.10
2021,11,09,04,18,15.60
2021,11,09,04,19,15.50
2021,11,09,04,20,17.40
2021,11,09,04,21,15.20
2021,11,09,04,22,14.80
2021,11,09,04,23,13.10
2021,11,09,04,24,16.10
2021,11,09,04,25,15.70
2021,11,09,04,26,15.20
2021,11,09,04,27,14.80
2021,11,09,04,28,17.10
2021,11,09,04,29,17.80
2021,11,09,04,30,17.40
2021,11,09,04,31,18.60
2021,11,09,04,32,18.40
2021,11,09,04,33,23.90
2021,11,09,04,34,19.50
2021,11,09,04,35,19.40
2021,11,09,04,36,21.20
2021,11,09,04,37,23.40
2021,11,09,04,38,19.10
2021,11,09,04,39,20.90
2021,11,09,04,40,18.60
2021,11,09,04,41,21.20
2021,11,09,04,42,18.90
2021,11,09,04,43,19.20
2021,11,09,04,44,17.80
2021,11,09,04,45,19.40
2021,11,09,04,46,19.70
2021,11,09,04,47,18.30
2021,11,09,04,48,21.50
2021,11,09,04,49,20.70
2021,11,09,04,50,19.80
2021,11,09,04,51,22.00
2021,11,09,04,52,19.40
2021,11,09,04,53,18.10
2021,11,09,04,54,19.40
2021,11,09,04,55,16.40
2021,11,09,04,56,16.40
2021,11,09,04,57,18.40
2021,11,09,04,58,19.40
2021,11,09,04,59,20.20
2021,11,09,05,00,19.70
2021,11,09,05,01,19.70
2021,11,09,05,02,18.00
2021,11,09,05,03,22.10
2021,11,09,05,04,19.00
2021,11,09,05,05,19.10
2021,11,09,05,06,19.00
2021,11,09,05,07,20.90
2021,11,09,05,08,19.40
2021,11,09,05,09,19.00
2021,11,09,05,10,20.00
2021,11,09,05,11,17.60
2021,11,09,05,12,21.10
2021,11,09,05,13,19.60
2021,11,09,05,14,21.20
2021,11,09,05,15,18.50
2021,11,09,05,16,15.20
2021,11,09,05,17,15.80
2021,11,09,05,18,16.30
2021,11,09,05,19,19.60
2021,11,09,05,20,20.50
2021,11,09,05,21,19.20
2021,11,09,05,22,20.30
2021,11,09,05,23,19.00
2021,11,09,05,24,17.90
2021,11,09,05,25,19.20
2021,11,09,05,26,17.60
2021,11,09,05,27,15.00
2021,11,09,05,28,15.50
2021,11,09,05,29,18.90
2021,11,09,05,30,18.40
2021,11,09,05,31,17.10
2021,11,09,05,32,15.40
2021,11,09,05,33,16.50
2021,11,09,05,34,15.20
2021,11,09,05,35,16.70
2021,11,09,05,36,16.90
2021,11,09,05,37,13.20
2021,11,09,05,38,14.20
2021,11,09,05,39,15.50
2021,11,09,05,40,10.60
2021,11,09,05,41,11.40
2021,11,09,05,42,12.80
2021,11,09,05,43,12.60
2021,11,09,05,44,12.00
2021,11,09,05,45,11.70
2021,11,09,05,46,6.50
2021,11,09,05,47,3.90
2021,11,09,05,48,4.40
2021,11,09,05,49,3.40
2021,11,09,05,50,1.00
2021,11,09,05,51,0.10
2021,11,09,05,52,0.00
2021,11,09,05,53,0.00
2021,11,09,05,54,0.00
2021,11,09,05,55,0.00
2021,11,09,05,56,0.00
2021,11,09,05,57,1.60
2021,11,09,05,58,2.10
2021,11,09,05,59,1.90
2021,11,09,06,01,2.30
2021,11,09,06,02,2.30
2021,11,09,06,03,4.80
2021,11,09,06,04,7.10
2021,11,09,06,05,4.90
2021,11,09,06,06,5.30
2021,11,09,06,07,1.60
2021,11,09,06,08,1.10
2021,11,09,06,09,4.00
2021,11,09,06,10,3.40
2021,11,09,06,11,9.10
2021,11,09,06,12,2.20
2021,11,09,06,13,4.20
2021,11,09,06,14,3.30
2021,11,09,06,15,1.80
2021,11,09,06,16,2.00
2021,11,09,06,17,1.40
2021,11,09,06,18,0.50
2021,11,09,06,19,0.00
2021,11,09,06,20,1.00
2021,11,09,06,21,2.50
2021,11,09,06,22,1.20
2021,11,09,06,23,0.30
2021,11,09,06,24,1.70
2021,11,09,06,25,2.00
2021,11,09,06,26,1.30
2021,11,09,06,27,3.30
2021,11,09,06,28,0.70
2021,11,09,06,29,8.90
2021,11,09,06,30,3.60
2021,11,09,06,31,1.50
2021,11,09,06,32,0.50
2021,11,09,06,33,1.80
2021,11,09,06,34,2.00
2021,11,09,06,35,1.50
2021,11,09,06,36,2.80
2021,11,09,06,37,2.70
2021,11,09,06,38,0.00
2021,11,09,06,39,0.00
2021,11,09,06,40,3.60
2021,11,09,06,41,1.20
2021,11,09,06,42,0.60
2021,11,09,06,43,0.00
2021,11,09,06,44,2.00
2021,11,09,06,45,0.10
2021,11,09,06,46,0.00
2021,11,09,06,47,0.00
2021,11,09,06,48,0.00
2021,11,09,06,49,2.90
2021,11,09,06,50,1.00
2021,11,09,06,51,0.20
2021,11,09,06,52,0.00
2021,11,09,06,53,0.00
2021,11,09,06,54,0.50
2021,11,09,06,55,2.10
2021,11,09,06,56,0.80
2021,11,09,06,57,0.00
2021,11,09,06,58,0.00
2021,11,09,06,59,0.00
2021,11,09,07,00,0.00
2021,11,09,07,01,0.10
2021,11,09,07,02,1.60
2021,11,09,07,03,0.30
2021,11,09,07,04,1.00
2021,11,09,07,05,0.50
2021,11,09,07,06,3.20
2021,11,09,07,07,2.50
2021,11,09,07,08,0.20
2021,11,09,07,09,0.00
2021,11,09,07,10,0.00
2021,11,09,07,11,0.00
2021,11,09,07,12,0.00
2021,11,09,07,13,2.50
2021,11,09,07,14,0.10
2021,11,09,07,15,0.20
2021,11,09,07,16,0.50
2021,11,09,07,17,1.10
2021,11,09,07,18,0.50
2021,11,09,07,19,1.60
2021,11,09,07,20,0.00
2021,11,09,07,21,3.60
2021,11,09,07,22,2.50
2021,11,09,07,23,5.70
2021,11,09,07,24,2.20
2021,11,09,07,25,4.30
2021,11,09,07,26,3.30
2021,11,09,07,27,1.90
2021,11,09,07,28,0.40
2021,11,09,07,29,0.80
2021,11,09,07,30,2.50
2021,11,09,07,31,3.50
2021,11,09,07,32,0.20
2021,11,09,07,33,1.50
2021,11,09,07,34,0.10
2021,11,09,07,35,0.00
2021,11,09,07,36,0.10
2021,11,09,07,37,0.50
2021,11,09,07,38,0.00
2021,11,09,07,39,1.60
2021,11,09,07,40,0.60
2021,11,09,07,41,0.00
2021,11,09,07,42,0.00
2021,11,09,07,43,0.00
2021,11,09,07,44,0.00
2021,11,09,07,45,0.00
2021,11,09,07,46,0.00
2021,11,09,07,47,0.00
2021,11,09,07,48,0.00
2021,11,09,07,49,0.00
2021,11,09,07,50,0.00
2021,11,09,07,51,0.00
2021,11,09,07,52,0.00
2021,11,09,07,53,0.00
2021,11,09,07,54,0.00
2021,11,09,07,55,0.00
2021,11,09,07,56,0.00
2021,11,09,07,57,1.60
2021,11,09,07,58,0.00
2021,11,09,07,59,0.00
2021,11,09,08,00,0.00
2021,11,09,08,01,0.00
2021,11,09,08,02,0.00
2021,11,09,08,03,0.00
2021,11,09,08,04,0.00
2021,11,09,08,05,0.00
2021,11,09,08,06,0.00
2021,11,09,08,07,0.00
2021,11,09,08,08,0.00
2021,11,09,08,09,0.00
2021,11,09,08,10,0.10
2021,11,09,08,11,0.10
2021,11,09,08,12,0.00
2021,11,09,08,13,0.00
2021,11,09,08,14,0.00
2021,11,09,08,15,0.10
2021,11,09,08,16,1.40
2021,11,09,08,17,0.00
2021,11,09,08,18,0.10
2021,11,09,08,19,0.20
2021,11,09,08,20,0.50
2021,11,09,08,21,0.00
2021,11,09,08,22,0.90
2021,11,09,08,23,0.00
2021,11,09,08,24,0.00
2021,11,09,08,25,0.00
2021,11,09,08,26,0.10
2021,11,09,08,27,0.00
2021,11,09,08,28,0.00
2021,11,09,08,29,0.00
2021,11,09,08,30,0.50
2021,11,09,08,31,0.30
2021,11,09,08,32,0.10
2021,11,09,08,33,0.00
2021,11,09,08,34,0.00
2021,11,09,08,35,0.00
2021,11,09,08,36,0.20
2021,11,09,08,37,0.00
2021,11,09,08,38,0.00
2021,11,09,08,39,0.00
2021,11,09,08,40,0.00
2021,11,09,08,41,1.20
2021,11,09,08,42,2.90
2021,11,09,08,43,4.80
2021,11,09,08,44,2.10
2021,11,09,08,45,1.30
2021,11,09,08,46,2.30
2021,11,09,08,47,3.90
2021,11,09,08,48,1.20
2021,11,09,08,49,0.50
2021,11,09,08,50,2.00
2021,11,09,08,51,0.70
2021,11,09,08,52,0.00
2021,11,09,08,53,1.20
2021,11,09,08,54,0.50
2021,11,09,08,55,0.40
2021,11,09,08,56,0.20
2021,11,09,08,57,1.70
2021,11,09,08,58,0.10
2021,11,09,08,59,0.00
2021,11,09,09,00,0.00
2021,11,09,09,01,0.00
2021,11,09,09,02,0.00
2021,11,09,09,03,0.00
2021,11,09,09,04,0.00
2021,11,09,09,05,0.20
2021,11,09,09,06,0.20
2021,11,09,09,07,0.30
2021,11,09,09,08,2.10
2021,11,09,09,09,1.50
2021,11,09,09,10,1.10
2021,11,09,09,11,0.50
2021,11,09,09,12,0.00
2021,11,09,09,13,0.00
2021,11,09,09,14,0.00
2021,11,09,09,15,1.80
2021,11,09,09,16,0.10
2021,11,09,09,17,0.00
2021,11,09,09,18,0.40
2021,11,09,09,19,1.20
2021,11,09,09,20,0.00
2021,11,09,09,21,0.90
2021,11,09,09,22,0.40
2021,11,09,09,23,0.00
2021,11,09,09,24,0.00
2021,11,09,09,25,2.60
2021,11,09,09,26,2.00
2021,11,09,09,27,0.00
2021,11,09,09,28,0.00
2021,11,09,09,29,0.00
2021,11,09,09,30,1.60
2021,11,09,09,31,3.00
2021,11,09,09,32,1.80
2021,11,09,09,33,4.00
2021,11,09,09,34,2.90
2021,11,09,09,35,7.50
2021,11,09,09,36,2.90
2021,11,09,09,37,4.50
2021,11,09,09,38,2.40
2021,11,09,09,39,3.60
2021,11,09,09,40,6.00
2021,11,09,09,41,1.70
2021,11,09,09,42,2.10
2021,11,09,09,43,4.20
2021,11,09,09,44,7.50
2021,11,09,09,45,6.70
2021,11,09,09,46,4.80
2021,11,09,09,47,2.80
2021,11,09,09,48,1.80
2021,11,09,09,49,3.00
2021,11,09,09,50,2.60
2021,11,09,09,51,2.00
2021,11,09,09,52,4.00
2021,11,09,09,53,2.70
2021,11,09,09,54,2.40
2021,11,09,09,55,4.30
2021,11,09,09,56,1.00
2021,11,09,09,57,2.40
2021,11,09,09,58,5.50
2021,11,09,09,59,4.10
2021,11,09,10,00,3.10
2021,11,09,10,01,3.40
2021,11,09,10,02,5.20
2021,11,09,10,03,4.80
2021,11,09,10,04,4.50
2021,11,09,10,05,5.20
2021,11,09,10,06,5.40
2021,11,09,10,07,4.40
2021,11,09,10,08,5.70
2021,11,09,10,09,2.30
2021,11,09,10,10,7.80
2021,11,09,10,11,4.40
2021,11,09,10,12,4.10
2021,11,09,10,13,3.20
2021,11,09,10,14,3.10
2021,11,09,10,15,5.90
2021,11,09,10,16,4.60
2021,11,09,10,17,9.70
2021,11,09,10,18,8.90
2021,11,09,10,19,4.90
2021,11,09,10,20,5.80
2021,11,09,10,21,5.20
2021,11,09,10,22,6.60
2021,11,09,10,23,4.90
2021,11,09,10,24,4.60
2021,11,09,10,25,0.90
2021,11,09,10,26,4.90
2021,11,09,10,27,5.50
2021,11,09,10,28,4.70
2021,11,09,10,29,5.70
2021,11,09,10,30,3.30
2021,11,09,10,31,4.30
2021,11,09,10,32,5.20
2021,11,09,10,33,6.50
2021,11,09,10,34,4.20
2021,11,09,10,35,4.10
2021,11,09,10,36,7.60
2021,11,09,10,37,7.20
2021,11,09,10,38,6.40
2021,11,09,10,39,5.90
2021,11,09,10,40,3.10
2021,11,09,10,41,7.00
2021,11,09,10,42,3.90
2021,11,09,10,43,10.00
2021,11,09,10,44,8.20
2021,11,09,10,45,5.90
2021,11,09,10,46,12.50
2021,11,09,10,47,5.90
2021,11,09,10,48,9.50
2021,11,09,10,49,4.90
2021,11,09,10,50,8.40
2021,11,09,10,51,6.10
2021,11,09,10,52,5.60
2021,11,09,10,53,3.40
2021,11,09,10,54,4.40
2021,11,09,10,55,4.70
2021,11,09,10,56,4.40
2021,11,09,10,57,5.10
2021,11,09,10,58,6.60
2021,11,09,10,59,9.70
2021,11,09,11,00,4.80
2021,11,09,11,01,4.80
2021,11,09,11,02,2.90
2021,11,09,11,03,8.00
2021,11,09,11,04,7.50
2021,11,09,11,05,2.50
2021,11,09,11,06,1.80
2021,11,09,11,07,3.90
2021,11,09,11,08,6.40
2021,11,09,11,09,2.60
2021,11,09,11,10,0.10
2021,11,09,11,11,2.00
2021,11,09,11,12,4.40
2021,11,09,11,13,6.10
2021,11,09,11,14,5.70
2021,11,09,11,15,5.80
2021,11,09,11,16,8.90
2021,11,09,11,17,4.90
2021,11,09,11,18,4.90
2021,11,09,11,19,4.80
2021,11,09,11,20,5.20
2021,11,09,11,21,8.00
2021,11,09,11,22,4.90
2021,11,09,11,23,6.20
2021,11,09,11,24,8.60
2021,11,09,11,25,6.70
2021,11,09,11,26,9.30
2021,11,09,11,27,7.00
2021,11,09,11,28,3.30
2021,11,09,11,29,10.10
2021,11,09,11,30,7.10
2021,11,09,11,31,7.90
2021,11,09,11,32,6.90
2021,11,09,11,33,4.90
2021,11,09,11,34,6.20
2021,11,09,11,35,5.50
2021,11,09,11,36,9.70
2021,11,09,11,37,4.50
2021,11,09,11,38,7.60
2021,11,09,11,39,12.30
2021,11,09,11,40,6.00
2021,11,09,11,41,7.40
2021,11,09,11,42,7.30
2021,11,09,11,43,4.40
2021,11,09,11,44,5.00
2021,11,09,11,45,4.20
2021,11,09,11,46,7.70
2021,11,09,11,47,7.80
2021,11,09,11,48,4.20
2021,11,09,11,49,5.70
2021,11,09,11,50,3.00
2021,11,09,11,51,4.50
2021,11,09,11,52,7.30
2021,11,09,11,53,6.90
2021,11,09,11,54,7.50
2021,11,09,11,55,7.40
2021,11,09,11,56,4.40
2021,11,09,11,57,6.40
2021,11,09,11,58,4.60
2021,11,09,11,59,5.20
2021,11,09,12,00,6.30
2021,11,09,12,01,8.10
2021,11,09,12,02,4.30
2021,11,09,12,03,5.90
2021,11,09,12,04,8.40
2021,11,09,12,05,4.50
2021,11,09,12,06,4.60
2021,11,09,12,07,3.80
2021,11,09,12,08,2.10
2021,11,09,12,09,4.70
2021,11,09,12,10,3.70
2021,11,09,12,11,0.30
2021,11,09,12,12,5.20
2021,11,09,12,13,5.90
2021,11,09,12,14,5.70
2021,11,09,12,15,5.40
2021,11,09,12,16,5.20
2021,11,09,12,17,6.10
2021,11,09,12,18,3.00
2021,11,09,12,19,2.60
2021,11,09,12,20,3.20
2021,11,09,12,21,5.00
2021,11,09,12,22,4.40
2021,11,09,12,23,3.90
2021,11,09,12,24,4.10
2021,11,09,12,25,2.60
2021,11,09,12,26,0.80
2021,11,09,12,27,0.00
2021,11,09,12,28,0.20
2021,11,09,12,29,2.60
2021,11,09,12,30,0.10
2021,11,09,12,31,0.00
2021,11,09,12,32,3.70
2021,11,09,12,33,2.60
2021,11,09,12,34,4.20
2021,11,09,12,35,4.30
2021,11,09,12,36,4.80
2021,11,09,12,37,2.50
2021,11,09,12,38,3.00
2021,11,09,12,39,2.90
2021,11,09,12,40,2.50
2021,11,09,12,41,4.70
2021,11,09,12,42,10.60
2021,11,09,12,43,9.60
2021,11,09,12,44,7.00
2021,11,09,12,45,6.30
2021,11,09,12,46,4.80
2021,11,09,12,47,4.20
2021,11,09,12,48,4.50
2021,11,09,12,49,5.40
2021,11,09,12,50,6.20
2021,11,09,12,51,4.30
2021,11,09,12,52,5.20
2021,11,09,12,53,8.50
2021,11,09,12,54,4.70
2021,11,09,12,55,4.50
2021,11,09,12,56,5.90
2021,11,09,12,57,6.10
2021,11,09,12,58,5.20
2021,11,09,12,59,4.80
2021,11,09,13,00,8.00
2021,11,09,13,01,4.70
2021,11,09,13,02,4.20
2021,11,09,13,03,4.00
2021,11,09,13,04,2.60
2021,11,09,13,05,6.40
2021,11,09,13,06,3.50
2021,11,09,13,07,6.40
2021,11,09,13,08,4.50
2021,11,09,13,09,3.10
2021,11,09,13,10,2.30
2021,11,09,13,11,2.40
2021,11,09,13,12,4.80
2021,11,09,13,13,3.50
2021,11,09,13,14,5.80
2021,11,09,13,15,4.00
2021,11,09,13,16,4.70
2021,11,09,13,17,4.30
2021,11,09,13,18,5.50
2021,11,09,13,19,4.90
2021,11,09,13,20,5.80
2021,11,09,13,21,3.30
2021,11,09,13,22,5.40
2021,11,09,13,23,7.70
2021,11,09,13,24,4.80
2021,11,09,13,25,3.60
2021,11,09,13,26,3.90
2021,11,09,13,27,6.00
2021,11,09,13,28,5.50
2021,11,09,13,29,5.80
2021,11,09,13,30,3.80
2021,11,09,13,31,4.50
2021,11,09,13,32,7.90
2021,11,09,13,33,6.00
2021,11,09,13,34,4.90
2021,11,09,13,35,4.50
2021,11,09,13,36,3.00
2021,11,09,13,37,3.50
2021,11,09,13,38,5.80
2021,11,09,13,39,4.10
2021,11,09,13,40,5.80
2021,11,09,13,41,3.50
2021,11,09,13,42,5.50
2021,11,09,13,43,6.00
2021,11,09,13,44,3.60
2021,11,09,13,45,4.00
2021,11,09,13,46,4.20
2021,11,09,13,47,2.50
2021,11,09,13,48,4.30
2021,11,09,13,49,4.40
2021,11,09,13,50,2.70
2021,11,09,13,51,3.00
2021,11,09,13,52,5.10
2021,11,09,13,53,2.40
2021,11,09,13,54,2.00
2021,11,09,13,55,3.70
2021,11,09,13,56,3.90
2021,11,09,13,57,3.60
2021,11,09,13,58,2.70
2021,11,09,13,59,4.00
2021,11,09,14,00,6.20
2021,11,09,14,01,5.20
2021,11,09,14,02,2.10
2021,11,09,14,03,4.40
2021,11,09,14,04,4.90
2021,11,09,14,05,5.30
2021,11,09,14,06,4.20
2021,11,09,14,07,3.30
2021,11,09,14,08,4.00
2021,11,09,14,09,4.90
2021,11,09,14,10,5.80
2021,11,09,14,11,7.80
2021,11,09,14,12,6.60
2021,11,09,14,13,8.50
2021,11,09,14,14,5.70
2021,11,09,14,15,4.80
2021,11,09,14,16,5.10
2021,11,09,14,17,7.50
2021,11,09,14,18,6.70
2021,11,09,14,19,5.30
2021,11,09,14,20,4.90
2021,11,09,14,21,7.60
2021,11,09,14,22,6.80
2021,11,09,14,23,6.70
2021,11,09,14,24,6.00
2021,11,09,14,25,6.60
2021,11,09,14,26,4.60
2021,11,09,14,29,6.40
2021,11,09,14,30,5.30
2021,11,09,14,31,5.40
2021,11,09,14,32,5.70
2021,11,09,14,33,3.40
2021,11,09,14,34,6.00
2021,11,09,14,35,2.60
2021,11,09,14,36,2.90
2021,11,09,14,37,4.20
2021,11,09,14,38,3.00
2021,11,09,14,39,1.50
2021,11,09,14,40,0.40
2021,11,09,14,41,5.50
2021,11,09,14,42,2.50
2021,11,09,14,43,0.00
2021,11,09,14,44,0.50
2021,11,09,14,45,2.10
2021,11,09,14,46,3.30
2021,11,09,14,47,1.80
2021,11,09,14,48,1.70
2021,11,09,14,49,3.60
2021,11,09,14,50,3.80
2021,11,09,14,51,5.90
2021,11,09,14,52,6.00
2021,11,09,14,53,6.80
2021,11,09,14,54,6.20
2021,11,09,14,55,7.80
2021,11,09,14,56,8.60
2021,11,09,14,57,8.40
2021,11,09,14,58,8.20
2021,11,09,14,59,8.30
2021,11,09,15,00,4.50
2021,11,09,15,01,1.50
2021,11,09,15,02,2.20
2021,11,09,15,03,3.60
2021,11,09,15,04,4.40
2021,11,09,15,05,3.00
2021,11,09,15,06,1.80
2021,11,09,15,07,1.00
2021,11,09,15,08,0.70
2021,11,09,15,09,2.40
2021,11,09,15,10,0.10
2021,11,09,15,11,3.00
2021,11,09,15,12,4.40
2021,11,09,15,13,3.30
2021,11,09,15,14,3.50
2021,11,09,15,15,6.00
2021,11,09,15,16,4.80
2021,11,09,15,17,6.10
2021,11,09,15,18,4.00
2021,11,09,15,19,0.60
2021,11,09,15,20,1.70
2021,11,09,15,21,1.00
2021,11,09,15,22,4.70
2021,11,09,15,23,4.70
2021,11,09,15,24,3.00
2021,11,09,15,25,1.80
2021,11,09,15,26,2.70
2021,11,09,15,27,1.50
2021,11,09,15,28,0.70
2021,11,09,15,29,0.30
2021,11,09,15,30,0.00
2021,11,09,15,31,1.30
2021,11,09,15,32,1.30
2021,11,09,15,33,1.00
2021,11,09,15,34,0.60
2021,11,09,15,35,0.50
2021,11,09,15,36,0.00
2021,11,09,15,37,1.20
2021,11,09,15,38,0.50
2021,11,09,15,39,2.10
2021,11,09,15,40,0.70
2021,11,09,15,41,0.00
2021,11,09,15,42,1.80
2021,11,09,15,43,0.10
2021,11,09,15,44,1.10
2021,11,09,15,45,0.80
2021,11,09,15,46,3.30
2021,11,09,15,47,4.20
2021,11,09,15,48,3.60
2021,11,09,15,49,2.60
2021,11,09,15,50,2.70
2021,11,09,15,51,3.00
2021,11,09,15,52,4.40
2021,11,09,15,53,1.80
2021,11,09,15,54,6.00
2021,11,09,15,55,2.70
2021,11,09,15,56,3.50
2021,11,09,15,57,6.20
2021,11,09,15,58,2.50
2021,11,09,15,59,5.40
2021,11,09,16,00,3.20
2021,11,09,16,01,3.20
2021,11,09,16,02,3.30
2021,11,09,16,03,3.60
2021,11,09,16,04,0.10
2021,11,09,16,05,0.00
2021,11,09,16,06,1.40
2021,11,09,16,07,3.80
2021,11,09,16,08,1.00
2021,11,09,16,09,0.50
2021,11,09,16,10,2.60
2021,11,09,16,11,2.20
2021,11,09,16,12,0.00
2021,11,09,16,13,2.20
2021,11,09,16,14,1.30
2021,11,09,16,15,1.30
2021,11,09,16,16,0.50
2021,11,09,16,17,1.00
2021,11,09,16,18,1.80
2021,11,09,16,19,3.50
2021,11,09,16,20,3.20
2021,11,09,16,21,0.00
2021,11,09,16,22,0.00
2021,11,09,16,23,1.80
2021,11,09,16,24,1.50
2021,11,09,16,25,0.60
2021,11,09,16,26,1.80
2021,11,09,16,27,3.30
2021,11,09,16,28,5.10
2021,11,09,16,29,1.90
2021,11,09,16,30,3.20
2021,11,09,16,31,4.10
2021,11,09,16,32,1.00
2021,11,09,16,33,1.10
2021,11,09,16,34,0.80
2021,11,09,16,35,0.70
2021,11,09,16,36,0.00
2021,11,09,16,37,0.90
2021,11,09,16,38,0.10
2021,11,09,16,39,1.50
2021,11,09,16,40,3.00
2021,11,09,16,41,0.10
2021,11,09,16,42,0.30
2021,11,09,16,43,0.00
2021,11,09,16,44,0.00
2021,11,09,16,45,0.00
2021,11,09,16,46,0.00
2021,11,09,16,47,0.00
2021,11,09,16,48,2.20
2021,11,09,16,49,5.00
2021,11,09,16,50,2.40
2021,11,09,16,51,3.50
2021,11,09,16,52,5.30
2021,11,09,16,53,3.80
2021,11,09,16,54,2.60
2021,11,09,16,55,3.90
2021,11,09,16,56,1.80
2021,11,09,16,57,2.70
2021,11,09,16,58,2.90
2021,11,09,16,59,2.60
2021,11,09,17,00,6.30
2021,11,09,17,01,4.20
2021,11,09,17,02,1.40
2021,11,09,17,03,7.00
2021,11,09,17,04,2.40
2021,11,09,17,05,5.20
2021,11,09,17,06,2.80
2021,11,09,17,07,3.80
2021,11,09,17,08,3.00
2021,11,09,17,09,2.60
2021,11,09,17,10,3.20
2021,11,09,17,11,1.60
2021,11,09,17,12,1.00
2021,11,09,17,13,0.70
2021,11,09,17,14,1.60
2021,11,09,17,15,1.20
2021,11,09,17,16,0.00
2021,11,09,17,17,0.10
2021,11,09,17,18,1.10
2021,11,09,17,19,0.00
2021,11,09,17,20,0.00
2021,11,09,17,21,0.00
2021,11,09,17,22,0.80
2021,11,09,17,23,0.80
2021,11,09,17,24,0.00
2021,11,09,17,25,0.00
2021,11,09,17,26,0.00
2021,11,09,17,27,0.00
2021,11,09,17,28,0.00
2021,11,09,17,29,0.30
2021,11,09,17,30,0.70
2021,11,09,17,31,0.10
2021,11,09,17,32,0.10
2021,11,09,17,33,0.00
2021,11,09,17,34,0.00
2021,11,09,17,35,0.00
2021,11,09,17,36,0.00
2021,11,09,17,37,0.00
2021,11,09,17,38,0.00
2021,11,09,17,39,0.00
2021,11,09,17,40,0.00
2021,11,09,17,41,0.00
2021,11,09,17,42,0.00
2021,11,09,17,43,0.60
2021,11,09,17,44,0.20
2021,11,09,17,45,0.00
2021,11,09,17,46,1.40
2021,11,09,17,47,0.00
2021,11,09,17,48,0.00
2021,11,09,17,49,0.00
2021,11,09,17,50,0.00
2021,11,09,17,51,1.10
2021,11,09,17,52,0.80
2021,11,09,17,53,0.00
2021,11,09,17,54,0.10
2021,11,09,17,55,0.00
2021,11,09,17,56,0.00
2021,11,09,17,57,0.00
2021,11,09,17,58,1.70